CAPE
0 0 0 0 0 0 0 0 0 0 0 0 0 0 0 0 0 0 0 0 0 0 0 0 0 0 0 0 0 0 15 452 1417 1394 1540 1717 1924 1980 1770 1411 1416 1603 1804 1953
0 0 0 0 0 0 0 0 0 0 0 0 0 0 0 0 0 0 0 0 0 0 0 0 0 0 0 0 0 0 2 336 1496 1114 1359 1346 1767 2043 1962 1352 1401 1873 1963 2059
0 0 0 0 0 0 0 0 0 0 0 0 0 0 0 0 0 0 0 0 0 0 0 0 0 0 0 0 0 0 0 264 1298 1161 1579 1952 2057 2196 1847 1686 2165 2381 2271 2270
0 0 0 0 0 0 0 0 0 0 0 0 0 0 0 0 0 0 0 0 0 0 0 0 0 0 0 0 0 0 95 402 809 1380 1238 1598 1517 1712 1685 2061 2451 2114 1718 1570
0 0 0 0 0 0 0 0 0 0 0 0 0 0 0 0 0 0 0 0 0 0 0 0 0 9 15 12 1 3 138 460 766 1145 1333 1566 1605 1594 1726 1622 1447 840 672 422
0 0 0 0 0 0 0 0 0 0 0 0 0 0 0 0 0 0 0 0 0 0 0 0 0 0 10 86 227 293 357 483 701 1006 1358 1740 1720 1550 1153 847 690 447 299 350
0 0 0 0 0 0 0 0 0 0 0 0 0 0 0 0 0 0 0 0 0 0 0 0 0 0 0 0 39 151 276 316 320 335 398 535 692 605 519 376 149 54 22 9
0 0 0 0 0 0 0 0 0 0 0 0 0 0 0 0 0 0 0 0 0 0 0 0 0 0 0 0 0 0 0 0 1 1 1 10 79 23 26 65 18 0 0 0
0 3 0 0 0 0 0 0 0 0 0 0 0 0 0 0 0 0 0 0 0 0 0 0 0 0 0 0 0 0 0 0 0 0 0 0 3 11 12 104 139 9 26 11
0 11 0 0 0 0 7 1 0 0 0 0 0 0 0 0 0 0 0 0 0 0 0 0 0 0 0 0 0 0 0 0 0 0 0 0 0 0 0 2 13 26 76 137
4 19 18 0 0 13 0 0 0 2 4 1 0 14 3 0 0 0 0 0 0 0 0 0 0 0 0 0 0 0 0 0 0 0 0 0 0 0 0 0 0 0 1 7
10 18 20 24 0 0 0 2 9 2 0 0 0 1 0 1 5 0 0 0 0 0 0 0 0 0 0 0 0 0 0 0 0 0 0 0 0 0 0 0 0 0 0 0
7 6 18 8 0 0 0 0 0 4 12 12 23 41 0 0 0 0 0 4 0 0 0 0 0 0 0 0 0 0 0 0 0 0 0 0 0 0 0 0 0 0 0 0
2 44 25 3 0 2 0 0 0 0 3 0 0 9 3 0 0 1 1 0 0 0 0 0 0 0 0 0 0 0 0 0 0 0 0 0 0 0 0 0 0 0 0 0
25 31 10 0 0 0 0 0 0 0 0 0 0 0 0 0 0 0 0 0 0 0 0 0 0 0 0 0 0 0 0 0 0 0 0 0 0 0 0 0 0 0 0 0
0 2 0 0 0 0 0 0 0 0 0 0 0 0 0 0 0 0 0 0 0 0 0 0 0 0 0 0 0 0 0 0 0 0 0 0 0 0 0 0 0 0 0 0
0 1 0 0 0 0 0 0 0 0 0 0 0 0 0 0 0 0 0 0 0 0 1 0 0 0 0 0 0 0 0 0 0 0 0 0 0 0 0 0 0 0 0 0
1 6 2 0 0 0 0 0 0 0 0 0 0 0 0 5 5 0 0 2 0 0 0 0 0 0 0 0 0 0 0 0 0 0 0 0 0 0 0 0 0 0 2 1
0 5 0 0 0 0 0 0 0 0 0 0 0 4 18 22 12 0 19 5 1 0 0 0 0 0 0 0 0 0 0 0 0 0 0 0 0 0 0 0 1 1 2 0
0 0 0 0 0 0 0 0 0 0 0 0 0 5 12 7 15 26 2 6 1 0 0 0 0 0 0 0 0 0 0 0 0 0 0 0 0 0 1 1 2 0 1 1
0 4 0 0 1 0 0 0 0 0 2 2 1 17 35 29 31 17 13 7 5 1 0 0 0 0 0 0 0 0 0 0 0 0 0 0 0 0 2 0 1 1 2 2
0 0 2 3 1 0 0 0 0 21 15 4 17 29 31 30 36 13 9 16 11 3 0 0 0 0 0 0 0 0 0 0 0 1 0 0 2 0 2 1 1 2 2 3
2 2 2 0 9 0 0 23 7 1 0 1 9 29 38 24 27 16 10 8 6 1 0 0 0 0 0 0 0 0 0 0 1 3 6 1 1 1 1 2 2 3 2 3
2 0 0 0 4 9 18 23 4 6 15 15 23 22 9 14 8 3 1 0 0 0 0 0 0 0 0 0 0 0 1 0 4 1 2 2 2 2 2 2 2 3 4 3
0 0 0 2 7 0 2 7 5 8 19 19 11 9 3 0 0 0 0 0 0 0 0 0 0 0 0 0 0 1 1 1 2 2 3 2 3 3 4 2 3 3 2 2
0 0 0 0 0 0 21 19 1 11 5 0 0 0 0 0 0 0 0 0 0 0 0 0 0 1 2 1 1 1 0 1 1 2 3 3 4 4 4 4 6 0 0 1
CIN
-0 -0 -0 -0 -0 -0 -0 -0 -0 -0 -0 -0 -0 -0 -0 -0 -0 -0 -0 -0 -0 -0 -0 -0 -0 -0 -0 -0 -0 -0 -39 -106 -106 -117 -94 -74 -67 -49 -51 -63 -65 -42 -28 -13
-0 -0 -0 -0 -0 -0 -0 -0 -0 -0 -0 -0 -0 -0 -0 -0 -0 -0 -0 -0 -0 -0 -0 -0 -0 -0 -0 -0 -0 -0 -15 -146 -129 -107 -111 -82 -52 -34 -38 -64 -57 -34 -22 -19
-0 -0 -0 -0 -0 -0 -0 -0 -0 -0 -0 -0 -0 -0 -0 -0 -0 -0 -0 -0 -0 -0 -0 -0 -0 -0 -0 -0 -0 -0 -0 -198 -141 -152 -114 -85 -70 -55 -62 -47 -21 -15 -9 -12
-0 -0 -0 -0 -0 -0 -0 -0 -0 -0 -0 -0 -0 -0 -0 -0 -0 -0 -0 -0 -0 -0 -0 -0 -0 -0 -0 -0 -0 -0 -282 -223 -181 -169 -116 -99 -72 -32 -31 -14 -2 -25 -51 -47
-0 -0 -0 -0 -0 -0 -0 -0 -0 -0 -0 -0 -0 -0 -0 -0 -0 -0 -0 -0 -0 -0 -0 -0 -0 -255 -260 -279 -21 -25 -318 -279 -214 -174 -117 -69 -65 -18 -38 -26 -72 -91 -136 -133
-0 -0 -0 -0 -0 -0 -0 -0 -0 -0 -0 -0 -0 -0 -0 -0 -0 -0 -0 -0 -0 -0 -0 -0 -0 -0 -156 -219 -223 -271 -280 -252 -189 -127 -62 -17 -10 -13 -36 -88 -101 -120 -123 -126
-0 -0 -0 -0 -0 -0 -0 -0 -0 -0 -0 -0 -0 -0 -0 -0 -0 -0 -0 -0 -0 -0 -0 -0 -0 -0 -0 -0 -226 -207 -192 -191 -179 -167 -128 -77 -31 -41 -74 -134 -128 -140 -153 -158
-0 -0 -0 -0 -0 -0 -0 -0 -0 -0 -0 -0 -0 -0 -0 -0 -0 -0 -0 -0 -0 -0 -0 -0 -0 -0 -0 -0 -0 -0 -0 -0 -30 -30 -29 -21 -139 -165 -162 -141 -152 -0 -0 -14
-0 -2 -0 -0 -0 -0 -1 -0 -0 -0 -0 -0 -0 -0 -0 -0 -0 -0 -0 -0 -0 -0 -0 -0 -0 -0 -0 -0 -0 -0 -0 -0 -0 -0 -0 -0 -167 -182 -173 -72 -66 -149 -113 -120
-0 -3 -0 -0 -0 -0 -3 -3 -0 -0 -0 -0 -0 -0 -0 -0 -0 -0 -0 -0 -0 -0 -0 -0 -0 -0 -0 -0 -0 -0 -0 -0 -0 -0 -0 -0 -0 -0 -0 -132 -119 -185 -119 -87
-4 -3 -2 -0 -0 -3 -0 -0 -0 -3 -6 -2 -1 -3 -13 -0 -0 -0 -0 -0 -0 -0 -0 -0 -0 -0 -0 -0 -0 -0 -0 -0 -0 -0 -0 -0 -0 -0 -0 -0 -0 -0 -59 -168
-8 -3 -5 -4 -1 -0 -0 -4 -2 -2 -0 -0 -0 -1 -0 -1 -1 -0 -0 -0 -0 -0 -0 -0 -0 -0 -0 -0 -0 -0 -0 -0 -0 -0 -0 -0 -0 -0 -0 -0 -0 -0 -0 -0
-12 -1 -2 -8 -1 -0 -0 -0 -0 -1 -13 -1 -2 -3 -0 -0 -0 -0 -0 -1 -0 -0 -0 -0 -0 -0 -0 -0 -0 -0 -0 -0 -0 -0 -0 -0 -0 -0 -0 -0 -0 -0 -0 -0
-1 -3 -3 -1 -0 -1 -0 -0 -0 -0 -1 -0 -2 -2 -1 -0 -0 -1 -1 -0 -0 -0 -0 -0 -0 -0 -0 -0 -0 -0 -0 -0 -0 -0 -0 -0 -0 -0 -0 -0 -0 -0 -0 -0
-11 -2 -6 -0 -0 -0 -0 -0 -0 -0 -0 -0 -0 -0 -0 -0 -0 -0 -0 -0 -0 -0 -0 -0 -0 -0 -0 -0 -0 -0 -0 -0 -0 -0 -0 -0 -0 -0 -0 -0 -0 -0 -0 -0
-0 -4 -0 -0 -0 -0 -0 -0 -0 -0 -0 -0 -0 -0 -0 -0 -0 -0 -0 -0 -0 -0 -0 -0 -0 -0 -0 -0 -0 -0 -0 -0 -0 -0 -0 -0 -0 -0 -0 -0 -0 -0 -0 -0
-0 -0 -0 -0 -0 -0 -0 -0 -0 -0 -0 -0 -0 -0 -0 -0 -0 -0 -0 -0 -0 -0 -1 -2 -0 -0 -0 -0 -0 -0 -0 -0 -0 -0 -0 -0 -0 -0 -0 -0 -0 -0 -0 -0
-1 -0 -0 -0 -0 -0 -0 -0 -0 -0 -0 -0 -0 -0 -0 -2 -1 -0 -0 -2 -0 -0 -0 -0 -0 -0 -0 -0 -0 -0 -0 -0 -0 -0 -0 -0 -0 -0 -0 -0 -0 -0 -1 -2
-1 -1 -0 -0 -0 -0 -0 -0 -0 -0 -0 -0 -2 -3 -1 -2 -1 -0 -5 -1 -2 -1 -0 -0 -0 -0 -0 -0 -0 -0 -0 -0 -0 -0 -0 -0 -0 -0 -0 -0 -2 -2 -1 -0
-0 -1 -0 -0 -0 -0 -0 -0 -0 -0 -0 -0 -0 -1 -2 -3 -1 -8 -24 -2 -1 -0 -0 -0 -0 -0 -0 -0 -0 -0 -0 -0 -0 -0 -0 -0 -0 -0 -1 -2 -1 -0 -0 -0
-0 -1 -0 -0 -0 -0 -0 -0 -0 -0 -3 -1 -0 -1 -1 -2 -1 -5 -2 -1 -2 -2 -1 -0 -0 -0 -0 -0 -0 -0 -0 -0 -0 -0 -0 -0 -2 -1 -1 -0 -0 -0 -0 -0
-0 -0 -0 -2 -0 -0 -0 -0 -0 -0 -1 -0 -0 -1 -1 -2 -3 -2 -4 -2 -2 -1 -1 -0 -0 -0 -0 -0 -0 -0 -0 -0 -1 -1 -2 -2 -1 -0 -0 -0 -0 -0 -0 -0
-1 -1 -1 -0 -1 -0 -0 -0 -2 -1 -0 -2 -1 -1 -1 -2 -1 -3 -2 -2 -1 -1 -0 -0 -0 -0 -0 -0 -0 -0 -0 -2 -2 -0 -0 -0 -0 -0 -0 -0 -0 -0 -0 -0
-1 -0 -0 -0 -2 -0 -0 -1 -1 -1 -1 -1 -1 -1 -2 -1 -2 -3 -2 -2 -0 -0 -0 -0 -0 -0 -0 -0 -0 -2 -2 -2 -0 -0 -0 -0 -0 -0 -0 -0 -0 -0 -0 -0
-0 -0 -1 -0 -1 -0 -1 -1 -2 -1 -0 -1 -1 -0 -1 -1 -0 -0 -0 -0 -0 -0 -0 -0 -0 -0 -0 -1 -1 -1 -2 -0 -0 -0 -0 -0 -0 -0 -0 -0 -0 -0 -0 -0
-0 -0 -0 -0 -0 -0 -1 -1 -1 -1 -1 -0 -0 -0 -0 -0 -0 -0 -0 -0 -0 -0 -0 -0 -0 -1 -1 -2 -1 -1 -0 -0 -0 -0 -0 -0 -0 -0 -0 -0 -0 -0 -0 -0
Wind_Speed
29 35 36 33 32 28 27 34 31 27 22 23 33 33 32 27 24 23 24 25 27 29 28 28 27 27 26 24 22 19 16 16 14 14 13 12 12 10 11 13 14 14 14 16
27 43 34 31 29 26 24 30 31 22 21 22 25 30 31 27 26 23 21 22 22 24 24 24 24 24 24 25 23 20 18 15 13 13 12 11 11 9 10 11 12 13 13 15
25 26 30 29 30 28 24 29 26 23 20 22 27 32 28 25 21 16 17 18 20 22 23 23 22 22 21 20 20 18 16 16 14 13 12 12 12 10 10 11 12 13 14 14
24 19 23 28 27 26 24 21 24 22 24 29 21 34 26 21 19 15 18 20 21 22 22 22 22 21 21 21 21 20 18 16 14 13 14 14 13 14 12 11 11 12 13 13
15 15 21 29 28 25 23 20 20 21 24 28 23 29 23 12 15 14 19 19 20 21 22 22 23 23 23 22 22 21 20 19 19 18 18 17 18 16 15 13 12 13 13 14
13 20 15 18 22 24 19 18 16 19 20 33 24 24 25 19 16 15 17 18 18 18 19 21 22 22 22 22 21 20 20 20 20 20 20 20 20 18 15 14 14 15 15 16
15 11 13 16 16 16 20 18 19 24 26 31 15 22 26 13 14 15 15 15 16 17 18 20 21 21 21 21 20 19 18 18 17 16 16 16 15 14 13 14 17 18 19 19
22 17 15 14 17 18 21 21 21 28 28 23 18 26 19 16 14 13 13 15 16 18 20 21 21 20 19 18 19 18 17 16 16 16 16 15 15 16 18 18 20 21 22 23
24 18 17 19 18 20 16 26 22 25 22 26 24 19 18 15 15 15 15 17 19 20 21 21 20 19 19 19 19 19 18 18 18 18 19 19 21 22 23 23 23 25 26 27
21 19 16 14 14 17 23 13 19 22 30 32 26 26 28 14 14 14 14 17 19 20 20 20 20 20 20 19 19 19 20 20 20 21 22 23 23 24 26 27 29 31 32 32
12 21 16 17 22 22 20 24 24 25 25 28 30 23 18 16 13 13 14 18 21 23 23 23 23 21 20 20 21 22 23 23 24 25 26 27 28 28 29 31 32 32 33 34
17 20 15 18 18 22 23 25 22 26 29 29 32 33 21 17 12 15 17 21 24 25 24 24 23 22 23 24 25 25 27 28 29 29 30 31 31 32 33 34 35 35 36 36
16 22 24 23 21 20 24 22 25 25 26 30 28 23 15 13 14 16 20 23 27 26 25 23 23 23 24 26 27 28 30 31 31 32 33 34 35 36 37 38 39 39 40 41
15 17 20 23 18 13 19 20 20 20 23 25 25 24 15 15 20 24 27 31 29 25 24 23 23 24 25 27 29 30 31 32 33 34 36 37 38 39 40 41 42 42 43 44
14 18 19 17 15 16 17 15 14 17 18 22 22 21 23 26 30 30 28 27 25 21 22 23 25 27 29 30 32 33 34 35 36 38 39 40 40 40 40 41 41 42 42 43
18 17 17 18 18 19 22 22 21 20 22 26 27 30 29 22 20 21 21 20 20 21 22 24 26 29 31 33 35 36 37 37 38 39 40 40 41 41 42 43 43 42 42 43
15 14 16 19 17 21 26 24 20 20 19 22 23 24 21 22 23 22 23 22 23 24 25 27 29 31 33 35 36 38 39 41 41 42 43 43 43 44 44 44 45 45 44 44
13 13 14 17 15 20 15 14 18 18 19 19 19 23 24 24 22 22 22 24 25 27 28 30 33 33 34 37 40 41 42 43 44 45 46 45 45 45 47 47 46 44 44 44
14 12 15 17 16 23 17 17 18 18 17 19 22 22 23 22 24 25 21 22 25 27 30 32 32 36 40 43 44 45 46 46 46 47 47 46 46 49 48 45 45 46 44 44
12 15 15 15 16 18 16 14 16 19 22 20 21 21 25 26 30 26 25 27 30 31 32 35 38 41 44 45 45 46 47 47 47 47 49 48 48 48 46 43 45 43 36 38
11 14 14 16 19 21 16 15 17 20 20 20 22 24 25 27 28 28 30 32 31 32 35 38 42 45 46 45 46 47 47 48 49 49 49 50 49 46 43 42 38 35 34 34
13 12 16 16 19 22 13 13 18 20 20 24 25 26 27 27 28 29 31 33 35 39 41 43 45 46 45 45 46 48 49 49 49 50 51 50 46 44 36 34 32 30 31 31
16 15 14 14 18 15 15 18 21 23 26 27 28 27 24 24 26 29 33 38 41 43 45 44 45 47 45 45 46 46 47 49 49 47 47 43 38 35 29 25 26 25 26 29
16 14 18 17 14 18 20 21 23 23 25 25 24 22 24 25 27 31 37 41 43 44 44 44 46 46 46 44 44 46 45 44 42 42 19 29 27 29 25 23 23 25 28 29
17 12 16 19 18 21 17 21 22 23 23 23 23 22 25 27 31 36 40 43 43 43 43 43 43 40 41 43 44 41 41 41 37 21 23 23 24 24 25 24 24 24 22 23
15 17 17 19 16 18 20 22 22 22 23 24 24 26 29 33 38 41 42 42 43 42 42 41 39 40 41 40 38 37 37 39 36 19 22 23 24 24 25 25 25 22 19 20
Wind_Direction
223 220 225 228 233 242 244 238 240 250 257 251 247 245 251 256 260 265 266 272 278 284 291 292 288 287 288 288 288 286 285 289 293 300 299 291 283 272 265 274 281 288 290 294
220 215 227 231 234 242 247 239 240 253 257 262 254 255 257 256 257 265 272 277 287 293 300 301 298 297 294 292 292 292 286 283 286 298 304 305 299 284 278 276 282 285 290 295
229 234 231 233 234 238 245 240 242 256 264 267 262 259 261 267 273 280 286 294 299 303 307 308 308 305 302 301 299 300 292 285 288 291 300 303 307 297 286 281 284 287 290 293
238 248 235 229 234 238 247 255 256 261 259 261 261 259 260 267 273 282 290 294 300 303 310 315 314 311 307 305 303 302 300 294 290 289 289 291 290 291 288 285 287 291 293 295
247 245 235 230 234 240 251 256 260 266 265 265 268 264 272 278 271 279 290 299 305 310 312 313 316 315 315 312 308 305 301 297 294 293 288 288 285 288 289 290 287 290 294 296
263 245 249 246 248 246 258 258 267 271 272 260 269 266 270 272 276 287 299 307 311 318 322 323 323 323 320 320 318 315 308 304 298 294 292 289 287 285 283 284 286 289 292 293
250 252 255 255 250 251 249 252 262 261 259 260 279 274 277 292 291 296 305 313 319 325 328 329 329 328 328 328 326 326 324 319 317 313 309 304 297 293 287 287 290 291 292 293
238 245 251 254 253 253 248 251 261 260 260 267 278 277 281 289 297 305 312 316 317 320 323 325 328 331 335 337 337 338 336 331 328 324 321 317 310 303 300 294 295 294 294 296
240 252 258 256 259 258 254 254 272 270 279 274 279 290 297 294 298 301 306 311 313 315 321 323 327 328 330 331 331 330 330 329 329 327 321 315 309 304 300 298 296 295 295 296
252 251 264 262 267 271 265 265 268 270 269 270 279 281 289 286 292 297 305 314 317 319 322 324 325 326 327 328 328 329 329 327 324 323 320 316 312 309 305 300 297 295 294 294
260 256 263 262 257 260 264 264 270 277 277 275 277 290 305 298 291 296 308 314 316 315 316 319 320 323 325 324 323 322 321 321 319 317 315 312 309 307 304 302 300 299 297 296
259 259 262 263 277 272 272 268 271 270 272 277 279 281 307 307 302 303 306 312 315 317 319 319 321 321 320 319 318 317 316 315 315 314 312 310 308 307 304 302 301 300 298 297
257 262 257 266 274 278 271 274 274 279 283 275 280 293 316 318 308 310 307 312 313 315 317 321 322 321 321 320 318 317 315 314 313 312 309 308 306 304 303 301 300 299 297 296
257 264 263 268 281 285 275 275 278 279 280 283 283 287 312 312 308 307 305 306 313 315 318 321 323 324 323 322 320 319 317 316 314 312 309 307 305 304 302 301 300 299 298 296
271 269 273 283 293 295 295 294 289 284 286 289 293 297 303 304 304 306 309 312 316 319 321 322 321 321 320 319 319 317 316 315 314 311 309 307 306 305 304 304 304 303 302 300
264 277 278 285 286 287 284 284 285 287 288 288 293 296 300 313 322 324 328 328 326 325 324 322 321 321 319 318 316 315 315 314 313 311 310 309 308 307 306 305 305 305 304 302
277 281 278 279 291 289 285 285 289 291 295 298 296 306 316 318 321 324 325 327 326 324 322 320 319 319 318 317 316 314 312 311 310 310 310 309 309 308 307 307 306 305 304 303
283 282 290 289 300 289 312 323 314 304 300 305 307 310 316 320 325 328 328 326 326 325 323 320 318 320 319 316 313 312 312 310 309 308 308 309 309 309 307 306 306 307 307 305
286 291 289 288 290 293 302 308 308 308 315 320 316 320 323 329 328 324 324 328 327 326 322 321 321 317 313 309 309 308 309 309 308 309 310 311 310 306 307 309 310 309 308 307
290 286 289 294 296 299 306 317 323 323 310 334 334 332 329 329 318 324 330 325 323 321 321 317 313 311 307 305 308 309 309 310 310 310 307 307 309 310 311 312 311 312 311 311
280 285 283 290 291 294 311 320 328 318 325 339 338 333 330 325 323 322 321 320 320 319 315 312 307 302 303 308 310 309 310 309 302 301 306 307 309 311 313 314 315 315 314 313
284 287 286 290 293 296 324 332 320 329 337 334 333 331 328 326 325 322 319 317 313 307 305 305 294 303 310 311 311 307 295 297 303 304 303 304 311 315 320 319 318 316 316 314
284 289 295 299 301 318 325 321 324 328 328 330 331 333 335 331 329 327 319 308 300 298 295 306 302 302 310 310 302 288 293 300 295 291 293 317 324 325 325 322 321 319 320 318
288 295 293 301 313 313 316 320 324 330 332 337 342 345 339 334 331 326 316 305 299 297 297 307 300 300 295 293 295 296 292 290 288 286 289 333 333 332 332 329 327 324 323 323
294 302 297 300 313 315 332 334 335 337 342 345 349 350 341 336 329 321 312 301 298 295 299 298 291 283 284 294 295 290 292 294 284 336 339 340 341 340 338 335 332 329 325 324
295 297 298 306 324 322 327 334 341 343 348 348 348 341 333 328 318 312 308 303 302 302 294 290 286 290 289 289 285 288 291 299 327 343 346 346 345 345 344 343 340 338 327 324